Regional Weather Roundup
Issued by NWS

Home | Current Version | Previous Version | Graphics & Text | Print | Product List | Glossary On
Versions: 1 2 3 4 5 6 7 8 9 10 11 12 13 14 15 16 17 18 19 20 21 22 23 24 25 26 27 28 29 30 31 32 33 34 35 36 37 38 39 40 41 42 43 44 45 46 47 48 49 50
866
ASUS43 KIND 201500
RWRIN

WEATHER ROUNDUP FOR INDIANA
NATIONAL WEATHER SERVICE INDIANAPOLIS IN
1100 AM EDT THU JUL 20 2017

NOTE: "FAIR" INDICATES FEW OR NO CLOUDS BELOW 12,000 FEET WITH NO
SIGNIFICANT WEATHER AND/OR OBSTRUCTIONS TO VISIBILITY.

* - STATION DOES NOT REPORT WEATHER SUCH AS PRECIPITATION OR FOG.

+ - STATION NOT QUALITY CONTROLLED BY THE NATIONAL WEATHER SERVICE.
    USE DATA WITH CAUTION...ESPECIALLY DEWPOINT AND RELATIVE
    HUMIDITY OBSERVATIONS.

INZ001>003-010>013-019-020-201600-
NORTHWEST INDIANA

CITY           SKY/WX    TMP DP  RH WIND       PRES   REMARKS
GARY /AIRPORT/ PTSUNNY   72  72 100 S6        30.03F
KNOX *+        CLOUDY    68  68 100 E6        30.08F
MICHIGAN CITY+ LGT RAIN  70  70 100 SW16G30   29.97F
MONTICELLO +   RAIN      70  68  95 E3        30.11R
RENSSELAER +   RAIN      70  68  94 S10       30.06F
VALPARAISO     LGT RAIN  70  70 100 S9        30.05F FOG

$$

LMZ046-743>745-201600-
SOUTHERN LAKE MICHIGAN

STATION/POSITION TIME  TEMP    WIND        PRES    WAVE
                       AIR SEA DIR/SP/G            HT
                 (UTC) (F)     (DEG/KT/KT) (MB)    (FT)
BURNS HARBOR     1440   70     190/ 16/ 24 1015.9F
MICHIGAN CITY    1430   69     160/ 21/ 28   N/A
5NW MICH CITY    1450   72 74  210/ 23/ 31   N/A     2

$$

INZ004-005-014>016-021>024-201600-
NORTH CENTRAL INDIANA

CITY           SKY/WX    TMP DP  RH WIND       PRES   REMARKS
ELKHART        RAIN      70  68  94 S10       29.99F
PERU/GRISSOM   TSTM      73  73 100 NW6       30.11R VSB 1/4
SOUTH BEND     CLOUDY    69  69 100 S9        29.99F
WARSAW +       LGT RAIN  70  68  94 W8        30.09F

$$

INZ006>009-017-018-025>027-201600-
NORTHEAST INDIANA

CITY           SKY/WX    TMP DP  RH WIND       PRES   REMARKS
ANGOLA *+      SUNNY     73  66  78 W8        30.07S
FORT WAYNE     LGT RAIN  75  70  84 SW10      30.09F
KENDALLVILLE + LGT RAIN N/A N/A N/A W12G22    30.08S

$$

INZ028-029-035-036-043>045-051>053-201600-
WEST CENTRAL INDIANA

CITY           SKY/WX    TMP DP  RH WIND       PRES   REMARKS
GREENCASTLE +  CLOUDY    79  73  83 CALM      30.13R
LAFAYETTE      RAIN      73  72  96 W10       30.12R FOG
TERRE HAUTE    CLOUDY    83  73  72 W5        30.12R

$$

INZ030>032-037>040-046>048-054>057-064-065-201600-
CENTRAL INDIANA

CITY           SKY/WX    TMP DP  RH WIND       PRES   REMARKS
FRANKFORT +    CLOUDY    78  75  91 W3        30.13R
GREENWOOD *+   CLOUDY    79  72  79 W5        30.12S
INDIANAPOLIS   CLOUDY    80  74  81 SW8       30.10S
-EAGLE CREEK   CLOUDY    80  73  79 SW5       30.10S
KOKOMO +       TSTM      74  72  93 N8        30.12R
MT COMFORT *+  CLOUDY    79  73  83 CALM      30.12R
SHELBYVILLE    CLOUDY    80  72  76 SW5       30.11S

$$

INZ033-034-041-042-049-050-058-059-201600-
EAST CENTRAL INDIANA

CITY           SKY/WX    TMP DP  RH WIND       PRES   REMARKS
MUNCIE         CLOUDY    83  72  69 SW5       30.09F
RICHMOND +     CLOUDY    75  72  88 W6        30.15S

$$

INZ060-061-067>069-081>083-085>088-201600-
SOUTHWEST INDIANA

CITY           SKY/WX    TMP DP  RH WIND       PRES   REMARKS
EVANSVILLE     CLOUDY    88  72  58 W10       30.12R
HUNTINGBURG *+ CLOUDY    85  76  74 W7        30.13R

$$

INZ062-063-066-070>080-084-089>092-201600-
SOUTH CENTRAL AND SOUTHEAST INDIANA

CITY           SKY/WX    TMP DP  RH WIND       PRES   REMARKS
BLOOMINGTON    PTSUNNY   82  72  71 VRB3      30.12S
MADISON *+     CLOUDY    82  72  69 SW6       30.15S
SEYMOUR +      CLOUDY    82  75  78 CALM      30.11S

$$





USA.gov is the U.S. government's official web portal to all federal, state and local government web resources and services.